Weather History for Paynesville, MN

Change the Weather History Date:

Sunday, June 24, 2012

  Actual Average (KLJF) Record (KLJF)
Temperature  
Mean Temperature 72 °F -  
Max Temperature 81 °F 81 °F 101 °F (1988)
Min Temperature 63 °F 58 °F 43 °F (1958)
Cooling Degree Days 6    
Growing Degree Days 22 (Base 50)    
Moisture  
Dew Point 61 °F    
Average Humidity 70    
Maximum Humidity 98    
Minimum Humidity 39    
Precipitation  
Precipitation 0.00 in - - ()
Sea Level Pressure  
Sea Level Pressure 30.02 in    
Wind  
Wind Speed 3 mph (NE)    
Max Wind Speed 12 mph    
Max Gust Speed 20 mph    
Visibility 7 miles    
Events      
Averages and records for this station are not official NWS values.
T = Trace of Precipitation, MM = Missing Value Source: NWS Daily Summary

Daily Weather History Graph

Daily Weather History Graph

Search for Another Location

Airport:

Trip Planner

Search our weather history database for the weather conditions in past years. The results will help you decide how hot, cold, wet, or windy it might be!

Date:

Astronomy

Jun. 24, 2012 Rise Set
Actual Time 5:31 AM CDT 9:11 PM CDT
Civil Twilight 4:53 AM CDT 9:49 PM CDT
Nautical Twilight 4:03 AM CDT 10:39 PM CDT
Astronomical Twilight 2:55 AM CDT 11:47 PM CDT
Moon 10:53 AM CDT 11:52 PM CDT
Length of Visible Light 16h 55m
Length of Day
15h 39m
Waxing Crescent, 25% of the Moon is Illuminated
Jun 24
Waxing Crescent
Jun 26
First Quarter
Jul 3
Full
Jul 10
Last Quarter
Jul 18
New

Hourly Weather History & Observations

Time (CDT) Temp. Heat Index Dew Point Humidity Pressure Visibility Wind Dir Wind Speed Gust Speed Precip Events Conditions
12:14 AM 69.8 °F - 64.9 °F 84% 29.93 in 7.0 mi Calm Calm - N/A   Mostly Cloudy
12:34 AM 68.4 °F - 65.1 °F 89% 29.93 in 7.0 mi Calm Calm - N/A   Scattered Clouds
12:53 AM 67.6 °F - 64.6 °F 90% 29.93 in 7.0 mi Calm Calm - N/A   Clear
1:14 AM 66.2 °F - 64.4 °F 94% 29.94 in 5.0 mi Calm Calm - N/A   Clear
1:34 AM 66.7 °F - 64.8 °F 93% 29.94 in 7.0 mi Calm Calm - N/A   Scattered Clouds
2:13 AM 66.0 °F - 64.4 °F 94% 29.94 in 10.0 mi Calm Calm - N/A   Scattered Clouds
2:34 AM 65.3 °F - 64.0 °F 96% 29.95 in 7.0 mi Calm Calm - N/A   Scattered Clouds
2:53 AM 65.3 °F - 63.9 °F 95% 29.94 in 10.0 mi Calm Calm - N/A   Scattered Clouds
3:13 AM 64.9 °F - 63.3 °F 94% 29.95 in 10.0 mi Calm Calm - N/A   Clear
3:34 AM 64.9 °F - 63.5 °F 95% 29.95 in 10.0 mi Calm Calm - N/A   Clear
3:53 AM 65.1 °F - 63.5 °F 94% 29.95 in 10.0 mi Calm Calm - N/A   Clear
4:13 AM 65.3 °F - 63.9 °F 95% 29.95 in 10.0 mi Calm Calm - N/A   Clear
4:34 AM 63.9 °F - 62.8 °F 96% 29.95 in 7.0 mi Calm Calm - N/A   Scattered Clouds
4:53 AM 64.2 °F - 63.1 °F 96% 29.95 in 7.0 mi Calm Calm - N/A   Scattered Clouds
5:13 AM 63.1 °F - 62.4 °F 97% 29.96 in 5.0 mi Calm Calm - N/A   Clear
5:34 AM 63.7 °F - 63.0 °F 97% 29.97 in 7.0 mi Calm Calm - N/A   Scattered Clouds
6:14 AM 63.7 °F - 63.0 °F 97% 29.97 in 5.0 mi Calm Calm - N/A   Scattered Clouds
6:34 AM 64.0 °F - 63.5 °F 98% 29.98 in 4.0 mi Calm Calm - N/A   Scattered Clouds
6:54 AM 65.1 °F - 64.6 °F 98% 29.98 in 5.0 mi Calm Calm - N/A   Clear
7:14 AM 66.2 °F - 64.8 °F 95% 29.99 in 7.0 mi Calm Calm - N/A   Clear
7:33 AM 67.3 °F - 65.5 °F 94% 29.98 in 7.0 mi NE 3.5 mph - N/A   Scattered Clouds
7:54 AM 68.4 °F - 65.7 °F 91% 29.99 in 10.0 mi NE 8.1 mph - N/A   Clear
8:13 AM 69.6 °F - 65.7 °F 87% 29.99 in 10.0 mi ENE 5.8 mph - N/A   Clear
8:33 AM 70.7 °F - 65.1 °F 82% 30.00 in 10.0 mi NE 9.2 mph - N/A   Clear
8:54 AM 71.8 °F - 65.1 °F 79% 30.01 in 10.0 mi ENE 9.2 mph - N/A   Clear
9:13 AM 72.5 °F - 65.1 °F 78% 30.02 in 10.0 mi NE 10.4 mph - N/A   Clear
9:34 AM 73.4 °F - 65.3 °F 76% 30.02 in 10.0 mi NE 6.9 mph - N/A   Clear
9:53 AM 74.3 °F - 64.9 °F 72% 30.02 in 10.0 mi NE 9.2 mph - N/A   Clear
10:14 AM 74.7 °F - 64.2 °F 70% 30.02 in 10.0 mi NE 6.9 mph - N/A   Clear
10:33 AM 75.4 °F - 64.4 °F 69% 30.02 in 10.0 mi NNE 9.2 mph - N/A   Scattered Clouds
10:54 AM 75.7 °F - 64.2 °F 67% 30.03 in 10.0 mi ENE 10.4 mph - N/A   Scattered Clouds
11:14 AM 76.8 °F - 64.9 °F 67% 30.04 in 7.0 mi NE 6.9 mph - N/A   Clear
11:34 AM 77.0 °F - 64.0 °F 64% 30.03 in 10.0 mi North 9.2 mph - N/A   Clear
11:53 AM 77.9 °F - 64.0 °F 62% 30.04 in 7.0 mi NNE 10.4 mph 18.4 mph N/A   Clear
12:14 PM 78.1 °F - 64.0 °F 62% 30.04 in 5.0 mi NE 9.2 mph 16.1 mph N/A   Haze
12:34 PM 78.8 °F - 63.5 °F 59% 30.04 in 7.0 mi NNE 9.2 mph 18.4 mph N/A   Clear
12:53 PM 79.2 °F - 63.5 °F 59% 30.05 in 7.0 mi NE 9.2 mph 17.3 mph N/A   Clear
1:13 PM 80.1 °F 81.5 °F 63.1 °F 56% 30.05 in 7.0 mi NNE 8.1 mph - N/A   Scattered Clouds
1:34 PM 80.2 °F 81.5 °F 62.8 °F 55% 30.05 in 5.0 mi NNE 9.2 mph - N/A   Haze
1:54 PM 79.9 °F - 61.0 °F 52% 30.05 in 5.0 mi ENE 11.5 mph 16.1 mph N/A   Haze
2:13 PM 80.1 °F 81.1 °F 61.0 °F 52% 30.05 in 5.0 mi NE 10.4 mph - N/A   Haze
2:34 PM 80.1 °F 80.8 °F 59.5 °F 49% 30.05 in 5.0 mi NE 10.4 mph - N/A   Haze
2:54 PM 80.1 °F 80.7 °F 58.8 °F 48% 30.06 in 5.0 mi NE 10.4 mph - N/A   Haze
3:14 PM 80.1 °F 80.6 °F 57.9 °F 47% 30.06 in 5.0 mi NE 10.4 mph 19.6 mph N/A   Haze
3:33 PM 80.6 °F 80.5 °F 55.8 °F 42% 30.06 in 7.0 mi NE 8.1 mph 17.3 mph N/A   Clear
3:54 PM 80.6 °F 80.6 °F 56.1 °F 43% 30.06 in 7.0 mi NNE 11.5 mph 16.1 mph N/A   Clear
4:13 PM 80.6 °F 80.3 °F 53.8 °F 39% 30.05 in 7.0 mi NNE 10.4 mph 17.3 mph N/A   Clear
4:33 PM 80.8 °F 80.5 °F 54.7 °F 40% 30.06 in 5.0 mi NE 10.4 mph 16.1 mph N/A   Haze
4:53 PM 80.2 °F 80.4 °F 55.6 °F 43% 30.06 in 5.0 mi NNE 9.2 mph 16.1 mph N/A   Haze
5:14 PM 79.0 °F - 51.8 °F 39% 30.07 in 7.0 mi NNE 10.4 mph - N/A   Clear
5:33 PM 78.8 °F - 51.8 °F 39% 30.06 in 5.0 mi NNE 5.8 mph - N/A   Haze
5:54 PM 78.1 °F - 52.3 °F 41% 30.06 in 5.0 mi NNE 6.9 mph - N/A   Haze
6:14 PM 78.1 °F - 53.1 °F 42% 30.06 in 5.0 mi NNE 5.8 mph - N/A   Haze
6:34 PM 78.4 °F - 53.2 °F 42% 30.06 in 7.0 mi NNE 6.9 mph - N/A   Clear
6:53 PM 77.5 °F - 52.2 °F 41% 30.05 in 5.0 mi NE 5.8 mph - N/A   Haze
7:13 PM 76.8 °F - 51.8 °F 42% 30.04 in 5.0 mi ENE 5.8 mph - N/A   Haze
7:34 PM 75.4 °F - 55.9 °F 51% 30.07 in 5.0 mi NNE 5.8 mph - N/A   Haze
7:53 PM 74.5 °F - 56.7 °F 54% 30.06 in 7.0 mi NNE 4.6 mph - N/A   Clear
8:13 PM 73.2 °F - 57.6 °F 58% 30.06 in 5.0 mi NE 5.8 mph - N/A   Haze
8:34 PM 72.5 °F - 56.1 °F 56% 30.06 in 5.0 mi NE 5.8 mph - N/A   Haze
8:53 PM 71.1 °F - 56.8 °F 61% 30.06 in 5.0 mi NE 4.6 mph - N/A   Haze
9:14 PM 69.8 °F - 57.2 °F 64% 30.07 in 4.0 mi NE 3.5 mph - N/A   Haze
9:33 PM 68.5 °F - 58.1 °F 69% 30.07 in 7.0 mi Calm Calm - N/A   Clear
9:53 PM 67.5 °F - 58.1 °F 72% 30.08 in 7.0 mi ENE 3.5 mph - N/A   Clear
10:14 PM 67.3 °F - 58.6 °F 74% 30.09 in 7.0 mi Calm Calm - N/A   Clear
10:33 PM 67.8 °F - 59.2 °F 74% 30.10 in 7.0 mi Calm Calm - N/A   Clear
10:53 PM 68.4 °F - 58.3 °F 70% 30.11 in 5.0 mi ENE 3.5 mph - N/A   Haze
11:34 PM 68.0 °F - 56.5 °F 67% 30.11 in 7.0 mi ENE 5.8 mph - N/A   Clear
11:54 PM 67.1 °F - 56.3 °F 68% 30.11 in 7.0 mi ENE 4.6 mph - N/A   Clear